^^

..:: Storico WU ::..




Lo storico viene creato da WUnderground con i dati che la stazione Meteomincio invia al loro server. L' aggiornamento viene fatto ogni 5 minuti circa, tuttavia possono esserci intervalli pił ampi a causa di errori, interruzioni di servizio o problemi nell' invio tramite FTP.


Storico stazione MeteoMincio
Giorno Sommario per Giugno 07, 2022 Unità:  Inglese    Metrico   Entrambi
Giorno Settimana Mese Anno
  Max: Min: Media:
Temperatura: 80.6 °F 64.4 °F 72.7 °F
Dew Point: 69.8 °F 60.8 °F 64.8 °F
Umidità: 92% 62% 78%
Velocità vento: 15.5mph 0mph 4.8mph
Raffica: 24.2mph - -
Direzione- - SE
Pressione: 29.9 in 29.8 in -
Precipitazioni: 0.37 in    
 
 
Tabulato Dati per Giugno 07, 2022
Ora Temperatura Dew Point Pressione Direzione Velocità vento Raffica Umidità Intensità pioggia (oraria) Info solare Situazione
00:04 73.4 °F 62.6 °F 29.9 in NE 3.1 mph 3.7 mph 69% 0 in 0.00 W/m2 unknown
00:09 73.4 °F 64.4 °F 29.9 in ENE 3.1 mph 3.7 mph 70% 0 in 0.00 W/m2 unknown
00:14 73.4 °F 64.4 °F 29.9 in NE 2.5 mph 3.7 mph 70% 0 in 0.00 W/m2 unknown
00:19 73.4 °F 62.6 °F 29.9 in NE 3.1 mph 3.7 mph 70% 0 in 0.00 W/m2 unknown
00:24 73.4 °F 62.6 °F 29.9 in NE 3.7 mph 6.2 mph 70% 0 in 0.00 W/m2 unknown
00:29 73.4 °F 62.6 °F 29.9 in NE 3.7 mph 6.2 mph 70% 0 in 0.00 W/m2 unknown
00:34 73.4 °F 62.6 °F 29.9 in NE 3.7 mph 5 mph 71% 0 in 0.00 W/m2 unknown
00:39 73.4 °F 62.6 °F 29.9 in NE 3.1 mph 5 mph 71% 0 in 0.00 W/m2 unknown
00:44 73.4 °F 62.6 °F 29.9 in NE 3.7 mph 6.8 mph 71% 0 in 0.00 W/m2 unknown
00:49 73.4 °F 62.6 °F 29.9 in NE 3.7 mph 6.8 mph 72% 0 in 0.00 W/m2 unknown
00:54 73.4 °F 62.6 °F 29.9 in ENE 3.7 mph 6.8 mph 72% 0 in 0.00 W/m2 unknown
00:59 73.4 °F 62.6 °F 29.9 in ENE 3.1 mph 5 mph 72% 0 in 0.00 W/m2 unknown
01:04 71.6 °F 62.6 °F 29.9 in ENE 3.7 mph 5 mph 72% 0 in 0.00 W/m2 unknown
01:09 71.6 °F 62.6 °F 29.9 in ENE 3.7 mph 5 mph 73% 0 in 0.00 W/m2 unknown
01:14 71.6 °F 62.6 °F 29.9 in ENE 3.1 mph 5 mph 73% 0 in 0.00 W/m2 unknown
01:19 71.6 °F 62.6 °F 29.9 in ENE 3.1 mph 5 mph 74% 0 in 0.00 W/m2 unknown
01:24 71.6 °F 62.6 °F 29.9 in ENE 2.5 mph 3.7 mph 74% 0 in 0.00 W/m2 unknown
01:29 71.6 °F 62.6 °F 29.9 in ENE 2.5 mph 3.7 mph 74% 0 in 0.00 W/m2 unknown
01:34 71.6 °F 62.6 °F 29.9 in ENE 3.1 mph 3.7 mph 74% 0 in 0.00 W/m2 unknown
01:39 71.6 °F 62.6 °F 29.9 in ENE 3.1 mph 3.7 mph 74% 0 in 0.00 W/m2 unknown
01:44 71.6 °F 62.6 °F 29.9 in ENE 3.1 mph 3.7 mph 74% 0 in 0.00 W/m2 unknown
01:49 71.6 °F 62.6 °F 29.9 in ENE 3.1 mph 3.7 mph 74% 0 in 0.00 W/m2 unknown
01:54 71.6 °F 62.6 °F 29.9 in ENE 3.1 mph 3.7 mph 74% 0 in 0.00 W/m2 unknown
01:59 71.6 °F 62.6 °F 29.9 in ENE 2.5 mph 3.7 mph 74% 0 in 0.00 W/m2 unknown
02:04 71.6 °F 62.6 °F 29.9 in ENE 1.9 mph 3.1 mph 75% 0 in 0.00 W/m2 unknown
02:09 71.6 °F 62.6 °F 29.9 in ENE 1.2 mph 2.5 mph 75% 0 in 0.00 W/m2 unknown
02:13 71.6 °F 62.6 °F 29.9 in ENE 1.2 mph 2.5 mph 75% 0 in 0.00 W/m2 unknown
02:19 71.6 °F 62.6 °F 29.9 in East 1.2 mph 3.7 mph 75% 0 in 0.00 W/m2 unknown
02:24 71.6 °F 62.6 °F 29.9 in East 1.9 mph 3.7 mph 75% 0 in 0.00 W/m2 unknown
02:29 71.6 °F 62.6 °F 29.9 in East 2.5 mph 3.7 mph 75% 0 in 0.00 W/m2 unknown
02:34 71.6 °F 62.6 °F 29.9 in ENE 3.1 mph 5 mph 75% 0 in 0.00 W/m2 unknown
02:39 71.6 °F 62.6 °F 29.9 in ENE 3.1 mph 5 mph 75% 0 in 0.00 W/m2 unknown
02:44 71.6 °F 62.6 °F 29.9 in ENE 3.1 mph 5 mph 75% 0 in 0.00 W/m2 unknown
02:49 71.6 °F 62.6 °F 29.9 in ENE 3.7 mph 5 mph 75% 0 in 0.00 W/m2 unknown
02:54 71.6 °F 62.6 °F 29.9 in ENE 3.7 mph 5 mph 75% 0 in 0.00 W/m2 unknown
02:59 71.6 °F 62.6 °F 29.9 in NE 3.7 mph 5 mph 76% 0 in 0.00 W/m2 unknown
03:04 71.6 °F 62.6 °F 29.9 in ENE 3.1 mph 5 mph 75% 0 in 0.00 W/m2 unknown
03:09 71.6 °F 62.6 °F 29.9 in NE 3.1 mph 5 mph 75% 0 in 0.00 W/m2 unknown
03:14 71.6 °F 62.6 °F 29.9 in ENE 3.1 mph 5 mph 75% 0 in 0.00 W/m2 unknown
03:19 71.6 °F 62.6 °F 29.9 in ENE 2.5 mph 5 mph 75% 0 in 0.00 W/m2 unknown
03:24 71.6 °F 62.6 °F 29.9 in ENE 2.5 mph 3.7 mph 75% 0 in 0.00 W/m2 unknown
03:29 71.6 °F 62.6 °F 29.9 in NE 2.5 mph 3.7 mph 75% 0 in 0.00 W/m2 unknown
03:34 71.6 °F 62.6 °F 29.9 in ENE 3.1 mph 3.7 mph 75% 0 in 0.00 W/m2 unknown
03:39 71.6 °F 62.6 °F 29.9 in East 3.1 mph 3.7 mph 75% 0 in 0.00 W/m2 unknown
03:44 71.6 °F 62.6 °F 29.9 in ESE 2.5 mph 3.7 mph 74% 0 in 0.00 W/m2 unknown
03:49 71.6 °F 62.6 °F 29.9 in East 2.5 mph 3.7 mph 74% 0 in 0.00 W/m2 unknown
03:54 71.6 °F 62.6 °F 29.9 in ENE 1.9 mph 3.1 mph 74% 0 in 0.00 W/m2 unknown
03:59 71.6 °F 62.6 °F 29.9 in NNE 1.9 mph 3.7 mph 74% 0 in 0.00 W/m2 unknown
04:03 71.6 °F 62.6 °F 29.9 in NNE 3.1 mph 5 mph 74% 0 in 0.00 W/m2 unknown
04:08 73.4 °F 62.6 °F 29.9 in North 3.7 mph 5 mph 73% 0 in 0.00 W/m2 unknown
04:14 71.6 °F 62.6 °F 29.9 in NNE 3.7 mph 6.2 mph 73% 0 in 0.00 W/m2 unknown
04:18 71.6 °F 62.6 °F 29.8 in NE 4.3 mph 5.6 mph 74% 0 in 0.00 W/m2 unknown
04:23 71.6 °F 62.6 °F 29.8 in NE 5.6 mph 8.1 mph 74% 0 in 0.00 W/m2 unknown
04:28 71.6 °F 62.6 °F 29.8 in NE 6.2 mph 8.1 mph 75% 0 in 0.00 W/m2 unknown
04:33 71.6 °F 62.6 °F 29.8 in NNE 5.6 mph 8.7 mph 75% 0 in 0.00 W/m2 unknown
04:38 71.6 °F 62.6 °F 29.8 in NE 6.8 mph 10.6 mph 75% 0 in 0.00 W/m2 unknown
04:44 69.8 °F 62.6 °F 29.8 in NE 6.2 mph 9.9 mph 76% 0 in 0.00 W/m2 unknown
04:48 69.8 °F 62.6 °F 29.8 in NE 6.2 mph 8.1 mph 76% 0 in 0.00 W/m2 unknown
04:53 69.8 °F 60.8 °F 29.8 in NE 5.6 mph 6.8 mph 76% 0 in 0.00 W/m2 unknown
04:58 69.8 °F 60.8 °F 29.8 in NE 6.2 mph 6.8 mph 76% 0 in 0.00 W/m2 unknown
05:03 69.8 °F 60.8 °F 29.8 in NE 5.6 mph 8.7 mph 75% 0 in 0.00 W/m2 unknown
05:09 69.8 °F 60.8 °F 29.8 in NE 6.2 mph 10.6 mph 75% 0 in 0.00 W/m2 unknown
05:14 69.8 °F 60.8 °F 29.8 in ENE 6.8 mph 10.6 mph 75% 0 in 0.00 W/m2 unknown
05:18 69.8 °F 60.8 °F 29.8 in ENE 6.8 mph 10.6 mph 75% 0 in 0.00 W/m2 unknown
05:23 69.8 °F 60.8 °F 29.8 in NE 6.8 mph 10.6 mph 75% 0 in 0.00 W/m2 unknown
05:29 69.8 °F 60.8 °F 29.8 in ENE 6.8 mph 10.6 mph 77% 0 in 0.00 W/m2 unknown
05:34 69.8 °F 62.6 °F 29.8 in East 6.2 mph 8.1 mph 78% 0 in 0.00 W/m2 unknown
05:39 68 °F 62.6 °F 29.8 in ENE 6.2 mph 8.1 mph 79% 0 in 0.00 W/m2 unknown
05:44 68 °F 62.6 °F 29.8 in ENE 5 mph 8.1 mph 79% 0 in 0.00 W/m2 unknown
05:49 69.8 °F 62.6 °F 29.8 in NNE 5.6 mph 8.1 mph 80% 0 in 5.00 W/m2 unknown
05:54 69.8 °F 62.6 °F 29.8 in North 5.6 mph 8.1 mph 80% 0 in 5.00 W/m2 unknown
05:59 69.8 °F 62.6 °F 29.8 in North 6.2 mph 6.8 mph 80% 0 in 0.00 W/m2 unknown
06:04 69.8 °F 62.6 °F 29.8 in NNW 5 mph 6.8 mph 79% 0 in 0.00 W/m2 unknown
06:09 69.8 °F 62.6 °F 29.8 in North 5 mph 8.1 mph 81% 0 in 5.00 W/m2 unknown
06:13 69.8 °F 62.6 °F 29.8 in North 5.6 mph 16.2 mph 81% 0 in 7.00 W/m2 unknown
06:19 69.8 °F 62.6 °F 29.8 in NNW 5.6 mph 16.2 mph 81% 0 in 7.00 W/m2 unknown
06:24 69.8 °F 62.6 °F 29.9 in NNW 9.3 mph 16.2 mph 81% 0 in 7.00 W/m2 unknown
06:29 69.8 °F 62.6 °F 29.9 in NNE 9.3 mph 16.2 mph 80% 0 in 5.00 W/m2 unknown
06:34 69.8 °F 62.6 °F 29.9 in North 8.1 mph 16.2 mph 78% 0 in 5.00 W/m2 unknown
06:38 71.6 °F 62.6 °F 29.9 in North 6.2 mph 8.7 mph 77% 0 in 0.00 W/m2 unknown
06:44 71.6 °F 62.6 °F 29.9 in North 5 mph 6.8 mph 77% 0 in 0.00 W/m2 unknown
06:49 71.6 °F 62.6 °F 29.9 in North 6.2 mph 11.8 mph 77% 0 in 0.00 W/m2 unknown
06:54 71.6 °F 62.6 °F 29.9 in NNW 7.5 mph 11.8 mph 76% 0 in 0.00 W/m2 unknown
06:59 71.6 °F 62.6 °F 29.9 in NNW 8.1 mph 11.8 mph 76% 0 in 0.00 W/m2 unknown
07:04 69.8 °F 62.6 °F 29.9 in North 8.1 mph 11.8 mph 78% 0 in 0.00 W/m2 unknown
07:09 69.8 °F 62.6 °F 29.9 in NNW 6.8 mph 14.3 mph 82% 0 in 0.00 W/m2 unknown
07:14 68 °F 62.6 °F 29.9 in NNW 6.8 mph 14.3 mph 86% 0 in 0.00 W/m2 unknown
07:19 68 °F 62.6 °F 29.9 in North 8.1 mph 16.2 mph 87% 0 in 5.00 W/m2 unknown
07:24 68 °F 62.6 °F 29.9 in NNE 8.7 mph 18 mph 87% 0 in 11.00 W/m2 unknown
07:29 66.2 °F 62.6 °F 29.9 in North 9.9 mph 16.2 mph 90% 0 in 11.00 W/m2 unknown
07:34 66.2 °F 62.6 °F 29.9 in North 11.2 mph 16.2 mph 90% 0 in 11.00 W/m2 unknown
07:39 64.4 °F 60.8 °F 29.9 in NNE 12.4 mph 17.4 mph 90% 0 in 14.00 W/m2 unknown
07:44 64.4 °F 60.8 °F 29.9 in NE 12.4 mph 17.4 mph 90% 0 in 19.00 W/m2 unknown
07:49 64.4 °F 60.8 °F 29.9 in NNE 13 mph 16.8 mph 90% 0 in 19.00 W/m2 unknown
07:54 64.4 °F 60.8 °F 29.9 in NNE 11.8 mph 16.2 mph 90% 0.01 in 21.00 W/m2 unknown
07:59 64.4 °F 60.8 °F 29.9 in NNE 8.7 mph 16.2 mph 90% 0.01 in 32.00 W/m2 unknown
08:04 64.4 °F 62.6 °F 29.9 in NNE 13 mph 18.6 mph 91% 0.01 in 33.00 W/m2 unknown
08:09 64.4 °F 62.6 °F 29.9 in NNE 13.7 mph 18.6 mph 91% 0.01 in 37.00 W/m2 unknown
08:14 64.4 °F 62.6 °F 29.9 in NNE 11.8 mph 18 mph 91% 0.01 in 39.00 W/m2 unknown
08:19 64.4 °F 62.6 °F 29.9 in North 9.9 mph 14.9 mph 91% 0.01 in 39.00 W/m2 unknown
08:24 66.2 °F 62.6 °F 29.9 in North 8.7 mph 14.3 mph 91% 0.01 in 54.00 W/m2 unknown
08:29 66.2 °F 62.6 °F 29.9 in North 8.1 mph 13 mph 91% 0.01 in 67.00 W/m2 unknown
08:34 66.2 °F 62.6 °F 29.9 in North 8.7 mph 11.8 mph 91% 0.01 in 67.00 W/m2 unknown
08:39 66.2 °F 62.6 °F 29.9 in North 8.7 mph 11.8 mph 92% 0.01 in 67.00 W/m2 unknown
08:44 66.2 °F 62.6 °F 29.9 in NNE 8.1 mph 11.8 mph 92% 0.01 in 51.00 W/m2 unknown
08:49 66.2 °F 62.6 °F 29.9 in NNE 7.5 mph 11.8 mph 91% 0.01 in 51.00 W/m2 unknown
08:54 66.2 °F 62.6 °F 29.9 in NNE 9.9 mph 13 mph 91% 0.01 in 40.00 W/m2 unknown
08:59 66.2 °F 62.6 °F 29.9 in NNE 9.3 mph 13 mph 90% 0.01 in 26.00 W/m2 unknown
09:04 66.2 °F 62.6 °F 29.9 in North 8.1 mph 13 mph 90% 0.01 in 16.00 W/m2 unknown
09:09 66.2 °F 62.6 °F 29.9 in NE 5 mph 6.2 mph 89% 0.01 in 12.00 W/m2 unknown
09:14 66.2 °F 62.6 °F 29.9 in ESE 3.1 mph 9.9 mph 89% 0.01 in 11.00 W/m2 unknown
09:19 66.2 °F 62.6 °F 29.9 in ESE 5.6 mph 10.6 mph 89% 0.01 in 12.00 W/m2 unknown
09:24 66.2 °F 62.6 °F 29.9 in SE 5 mph 9.9 mph 89% 0.01 in 16.00 W/m2 unknown
09:29 66.2 °F 62.6 °F 29.9 in SSE 5 mph 6.8 mph 90% 0.01 in 30.00 W/m2 unknown
09:34 66.2 °F 62.6 °F 29.9 in East 3.1 mph 6.2 mph 91% 0.01 in 49.00 W/m2 unknown
09:39 66.2 °F 62.6 °F 29.9 in NNE 5 mph 6.2 mph 92% 0.01 in 54.00 W/m2 unknown
09:44 66.2 °F 64.4 °F 29.9 in North 5 mph 6.2 mph 92% 0.01 in 60.00 W/m2 unknown
09:49 66.2 °F 64.4 °F 29.9 in North 3.1 mph 6.2 mph 92% 0.01 in 100.00 W/m2 unknown
09:54 68 °F 64.4 °F 29.9 in NNE 3.1 mph 5 mph 92% 0.01 in 568.00 W/m2 unknown
09:59 68 °F 64.4 °F 29.9 in NNE 2.5 mph 5 mph 92% 0.01 in 568.00 W/m2 unknown
10:04 69.8 °F 66.2 °F 29.9 in ENE 6.8 mph 10.6 mph 92% 0.01 in 615.00 W/m2 unknown
10:09 69.8 °F 66.2 °F 29.9 in NE 6.8 mph 10.6 mph 91% 0.01 in 619.00 W/m2 unknown
10:14 69.8 °F 66.2 °F 29.9 in NNE 6.2 mph 9.9 mph 90% 0.01 in 624.00 W/m2 unknown
10:19 69.8 °F 68 °F 29.9 in NNE 5.6 mph 9.3 mph 89% 0.01 in 638.00 W/m2 unknown
10:24 71.6 °F 68 °F 29.9 in NNE 6.8 mph 9.9 mph 89% 0.01 in 652.00 W/m2 unknown
10:29 71.6 °F 68 °F 29.9 in NE 6.8 mph 9.9 mph 87% 0.01 in 664.00 W/m2 unknown
10:34 71.6 °F 68 °F 29.9 in NE 6.2 mph 10.6 mph 87% 0.01 in 671.00 W/m2 unknown
10:39 73.4 °F 68 °F 29.9 in NE 5 mph 10.6 mph 85% 0 in 682.00 W/m2 unknown
10:44 73.4 °F 68 °F 29.9 in NE 5 mph 9.9 mph 86% 0 in 687.00 W/m2 unknown
10:49 73.4 °F 68 °F 29.9 in ENE 7.5 mph 10.6 mph 84% 0 in 705.00 W/m2 unknown
10:54 73.4 °F 68 °F 29.9 in East 8.1 mph 11.8 mph 82% 0 in 717.00 W/m2 unknown
10:59 73.4 °F 66.2 °F 29.9 in ENE 8.1 mph 11.8 mph 81% 0 in 729.00 W/m2 unknown
11:04 73.4 °F 66.2 °F 29.9 in NE 6.2 mph 11.8 mph 80% 0 in 740.00 W/m2 unknown
11:09 75.2 °F 66.2 °F 29.9 in ENE 5.6 mph 9.3 mph 79% 0.01 in 744.00 W/m2 unknown
11:14 73.4 °F 68 °F 29.9 in East 5 mph 8.7 mph 79% 0.01 in 766.00 W/m2 unknown
11:19 75.2 °F 68 °F 29.9 in NE 5 mph 8.1 mph 80% 0.01 in 788.00 W/m2 unknown
11:24 75.2 °F 68 °F 29.9 in NNE 5 mph 8.1 mph 78% 0.01 in 791.00 W/m2 unknown
11:29 77 °F 68 °F 29.9 in ENE 5 mph 8.1 mph 78% 0.01 in 812.00 W/m2 unknown
11:34 75.2 °F 68 °F 29.9 in ESE 4.3 mph 6.8 mph 75% 0.01 in 803.00 W/m2 unknown
11:39 77 °F 66.2 °F 29.9 in ESE 5 mph 8.1 mph 74% 0.01 in 800.00 W/m2 unknown
11:44 75.2 °F 66.2 °F 29.9 in ESE 5 mph 8.1 mph 73% 0.01 in 810.00 W/m2 unknown
11:49 77 °F 66.2 °F 29.9 in East 5 mph 8.1 mph 73% 0.01 in 817.00 W/m2 unknown
11:54 77 °F 68 °F 29.9 in ENE 5 mph 8.1 mph 74% 0.01 in 824.00 W/m2 unknown
11:59 77 °F 66.2 °F 29.9 in NNE 3.1 mph 6.8 mph 72% 0.01 in 837.00 W/m2 unknown
12:04 77 °F 66.2 °F 29.9 in NE 5 mph 6.8 mph 71% 0.01 in 838.00 W/m2 unknown
12:09 77 °F 66.2 °F 29.9 in ENE 5 mph 6.8 mph 71% 0.02 in 826.00 W/m2 unknown
12:14 77 °F 68 °F 29.9 in NE 5 mph 6.8 mph 74% 0.02 in 846.00 W/m2 unknown
12:19 78.8 °F 68 °F 29.9 in North 3.1 mph 6.2 mph 72% 0.02 in 847.00 W/m2 unknown
12:24 78.8 °F 68 °F 29.9 in NNW 3.1 mph 6.2 mph 72% 0.02 in 851.00 W/m2 unknown
12:29 78.8 °F 68 °F 29.9 in NNW 2.5 mph 6.2 mph 71% 0.02 in 856.00 W/m2 unknown
12:34 78.8 °F 68 °F 29.8 in NNE 3.1 mph 6.2 mph 71% 0.01 in 861.00 W/m2 unknown
12:39 78.8 °F 68 °F 29.8 in ENE 3.7 mph 6.8 mph 69% 0.02 in 863.00 W/m2 unknown
12:44 78.8 °F 68 °F 29.8 in NE 4.3 mph 6.8 mph 69% 0.02 in 868.00 W/m2 unknown
12:49 78.8 °F 68 °F 29.8 in North 3.1 mph 6.8 mph 70% 0.02 in 874.00 W/m2 unknown
12:54 78.8 °F 68 °F 29.8 in ENE 3.1 mph 6.8 mph 68% 0.03 in 877.00 W/m2 unknown
12:59 78.8 °F 68 °F 29.8 in East 5 mph 6.2 mph 68% 0.04 in 882.00 W/m2 unknown
13:04 78.8 °F 68 °F 29.8 in NE 5 mph 6.2 mph 70% 0.05 in 882.00 W/m2 unknown
13:09 78.8 °F 69.8 °F 29.8 in North 3.1 mph 6.2 mph 72% 0.06 in 882.00 W/m2 unknown
13:14 78.8 °F 68 °F 29.8 in NW 1.9 mph 5 mph 69% 0.06 in 886.00 W/m2 unknown
13:19 78.8 °F 68 °F 29.8 in NE 2.5 mph 6.2 mph 68% 0.06 in 889.00 W/m2 unknown
13:24 78.8 °F 68 °F 29.8 in NNE 3.1 mph 6.2 mph 67% 0.08 in 895.00 W/m2 unknown
13:29 80.6 °F 68 °F 29.8 in NNE 3.1 mph 6.2 mph 67% 0.08 in 925.00 W/m2 unknown
13:34 80.6 °F 66.2 °F 29.8 in ESE 2.5 mph 6.2 mph 64% 0.09 in 947.00 W/m2 unknown
13:39 80.6 °F 68 °F 29.8 in East 2.5 mph 5 mph 66% 0.1 in 891.00 W/m2 unknown
13:44 80.6 °F 66.2 °F 29.8 in East 4.3 mph 8.1 mph 64% 0.11 in 949.00 W/m2 unknown
13:49 80.6 °F 66.2 °F 29.8 in East 3.7 mph 6.8 mph 62% 0.13 in 1072.00 W/m2 unknown
13:54 80.6 °F 66.2 °F 29.8 in ENE 3.1 mph 6.8 mph 63% 0.13 in 1046.00 W/m2 unknown
13:59 80.6 °F 68 °F 29.8 in SW 3.1 mph 3.7 mph 65% 0.13 in 1134.00 W/m2 unknown
14:04 80.6 °F 68 °F 29.8 in ENE 3.1 mph 3.7 mph 65% 0.14 in 1113.00 W/m2 unknown
14:09 80.6 °F 66.2 °F 29.8 in ESE 1.2 mph 3.7 mph 63% 0.14 in 454.00 W/m2 unknown
14:14 80.6 °F 66.2 °F 29.8 in SSW 2.5 mph 3.7 mph 63% 0.15 in 374.00 W/m2 unknown
14:19 80.6 °F 66.2 °F 29.8 in WNW 3.1 mph 5 mph 62% 0.15 in 387.00 W/m2 unknown
14:24 80.6 °F 66.2 °F 29.8 in West 3.1 mph 5 mph 65% 0.16 in 476.00 W/m2 unknown
14:29 80.6 °F 68 °F 29.8 in NW 3.7 mph 5 mph 66% 0.15 in 476.00 W/m2 unknown
14:34 80.6 °F 66.2 °F 29.8 in NW 3.7 mph 5 mph 65% 0.15 in 392.00 W/m2 unknown
14:39 80.6 °F 66.2 °F 29.8 in WNW 5 mph 6.8 mph 62% 0.16 in 345.00 W/m2 unknown
14:44 78.8 °F 66.2 °F 29.8 in West 6.2 mph 11.2 mph 66% 0.14 in 260.00 W/m2 unknown
14:49 78.8 °F 66.2 °F 29.8 in WNW 9.9 mph 13 mph 72% 0.13 in 199.00 W/m2 unknown
14:54 77 °F 66.2 °F 29.8 in WNW 13 mph 19.9 mph 74% 0.13 in 199.00 W/m2 unknown
14:59 75.2 °F 66.2 °F 29.8 in WNW 13 mph 19.9 mph 75% 0.12 in 104.00 W/m2 unknown
15:04 73.4 °F 66.2 °F 29.8 in WNW 9.9 mph 19.9 mph 76% 0.12 in 63.00 W/m2 unknown
15:09 73.4 °F 66.2 °F 29.8 in WNW 14.3 mph 24.2 mph 76% 0.11 in 39.00 W/m2 unknown
15:14 73.4 °F 66.2 °F 29.8 in NNW 15.5 mph 24.2 mph 79% 0.1 in 21.00 W/m2 unknown
15:19 71.6 °F 64.4 °F 29.8 in WSW 14.3 mph 24.2 mph 82% 0.09 in 18.00 W/m2 unknown
15:24 71.6 °F 64.4 °F 29.8 in SE 9.9 mph 16.8 mph 86% 0.09 in 25.00 W/m2 unknown
15:29 69.8 °F 64.4 °F 29.8 in ESE 6.8 mph 10.6 mph 86% 0.09 in 35.00 W/m2 unknown
15:34 68 °F 64.4 °F 29.8 in ESE 8.1 mph 11.8 mph 86% 0.08 in 49.00 W/m2 unknown
15:39 68 °F 64.4 °F 29.8 in ESE 9.3 mph 13 mph 86% 0.07 in 72.00 W/m2 unknown
15:44 68 °F 64.4 °F 29.8 in ESE 8.7 mph 13 mph 86% 0.06 in 98.00 W/m2 unknown
15:49 68 °F 64.4 °F 29.8 in South 6.2 mph 9.9 mph 86% 0.06 in 134.00 W/m2 unknown
15:54 69.8 °F 64.4 °F 29.8 in NW 7.5 mph 14.9 mph 86% 0.06 in 160.00 W/m2 unknown
15:59 69.8 °F 64.4 °F 29.8 in WNW 10.6 mph 19.3 mph 87% 0.05 in 183.00 W/m2 unknown
16:04 69.8 °F 64.4 °F 29.8 in WNW 8.7 mph 19.3 mph 87% 0.04 in 225.00 W/m2 unknown
16:09 69.8 °F 66.2 °F 29.8 in WNW 6.8 mph 9.9 mph 88% 0.04 in 311.00 W/m2 unknown
16:14 69.8 °F 66.2 °F 29.8 in WNW 7.5 mph 10.6 mph 88% 0.03 in 496.00 W/m2 unknown
16:19 71.6 °F 68 °F 29.8 in WNW 8.1 mph 11.8 mph 87% 0.03 in 633.00 W/m2 unknown
16:24 73.4 °F 68 °F 29.8 in WNW 7.5 mph 11.8 mph 87% 0.02 in 722.00 W/m2 unknown
16:29 73.4 °F 68 °F 29.8 in West 6.8 mph 10.6 mph 85% 0.02 in 729.00 W/m2 unknown
16:34 75.2 °F 68 °F 29.8 in WNW 6.2 mph 9.9 mph 84% 0.02 in 729.00 W/m2 unknown
16:39 75.2 °F 68 °F 29.8 in WNW 6.2 mph 8.1 mph 82% 0.02 in 724.00 W/m2 unknown
16:44 75.2 °F 69.8 °F 29.8 in WNW 5 mph 6.8 mph 80% 0.02 in 708.00 W/m2 unknown
16:49 77 °F 68 °F 29.8 in WNW 5 mph 6.8 mph 79% 0.02 in 686.00 W/m2 unknown
16:54 77 °F 68 °F 29.8 in WNW 5 mph 9.9 mph 77% 0.02 in 670.00 W/m2 unknown
16:59 77 °F 69.8 °F 29.8 in West 6.2 mph 10.6 mph 76% 0.02 in 652.00 W/m2 unknown
17:03 77 °F 69.8 °F 29.8 in WNW 6.2 mph 10.6 mph 75% 0.03 in 636.00 W/m2 unknown
17:09 78.8 °F 69.8 °F 29.8 in NW 6.2 mph 6.8 mph 75% 0.02 in 624.00 W/m2 unknown
17:14 78.8 °F 69.8 °F 29.8 in NNW 3.7 mph 9.3 mph 75% 0.02 in 608.00 W/m2 unknown
17:19 78.8 °F 69.8 °F 29.8 in WNW 3.1 mph 8.7 mph 74% 0.03 in 587.00 W/m2 unknown
17:24 78.8 °F 68 °F 29.8 in WNW 3.1 mph 6.2 mph 73% 0.03 in 568.00 W/m2 unknown
17:28 78.8 °F 68 °F 29.8 in WNW 4.3 mph 8.1 mph 72% 0.03 in 561.00 W/m2 unknown
17:34 78.8 °F 68 °F 29.8 in NNW 4.3 mph 8.1 mph 71% 0.04 in 550.00 W/m2 unknown
17:39 78.8 °F 68 °F 29.8 in North 5 mph 8.1 mph 70% 0.04 in 538.00 W/m2 unknown
17:44 78.8 °F 68 °F 29.8 in NNE 3.7 mph 5 mph 68% 0.04 in 526.00 W/m2 unknown
17:49 78.8 °F 68 °F 29.8 in ENE 3.1 mph 5 mph 67% 0.04 in 499.00 W/m2 unknown
17:54 78.8 °F 66.2 °F 29.8 in NW 1.9 mph 5 mph 67% 0.04 in 489.00 W/m2 unknown
17:59 78.8 °F 66.2 °F 29.8 in NNW 3.1 mph 5 mph 66% 0.04 in 469.00 W/m2 unknown
18:03 78.8 °F 68 °F 29.8 in ENE 3.1 mph 6.2 mph 68% 0.03 in 446.00 W/m2 unknown
18:09 78.8 °F 68 °F 29.8 in East 3.7 mph 6.2 mph 68% 0.04 in 438.00 W/m2 unknown
18:14 78.8 °F 66.2 °F 29.8 in East 3.7 mph 6.2 mph 66% 0.04 in 418.00 W/m2 unknown
18:19 78.8 °F 66.2 °F 29.8 in NNE 3.1 mph 6.2 mph 66% 0.04 in 397.00 W/m2 unknown
18:24 78.8 °F 66.2 °F 29.8 in NNW 1.2 mph 3.7 mph 65% 0.04 in 376.00 W/m2 unknown
18:29 78.8 °F 66.2 °F 29.8 in East 1.9 mph 6.8 mph 66% 0.03 in 362.00 W/m2 unknown
18:34 78.8 °F 68 °F 29.8 in East 2.5 mph 6.8 mph 68% 0.03 in 352.00 W/m2 unknown
18:39 78.8 °F 66.2 °F 29.8 in SE 2.5 mph 3.7 mph 67% 0.03 in 371.00 W/m2 unknown
18:44 78.8 °F 66.2 °F 29.8 in ESE 2.5 mph 5 mph 66% 0.03 in 378.00 W/m2 unknown
18:49 78.8 °F 66.2 °F 29.8 in ESE 6.8 mph 10.6 mph 67% 0.03 in 374.00 W/m2 unknown
18:54 78.8 °F 66.2 °F 29.8 in ESE 7.5 mph 10.6 mph 68% 0.03 in 355.00 W/m2 unknown
18:59 77 °F 66.2 °F 29.8 in ESE 7.5 mph 10.6 mph 69% 0.02 in 276.00 W/m2 unknown
19:04 77 °F 66.2 °F 29.8 in ESE 6.8 mph 9.9 mph 71% 0.02 in 257.00 W/m2 unknown
19:09 77 °F 66.2 °F 29.8 in ESE 6.2 mph 8.1 mph 71% 0.03 in 251.00 W/m2 unknown
19:14 77 °F 66.2 °F 29.8 in ESE 5 mph 6.8 mph 71% 0.02 in 211.00 W/m2 unknown
19:19 77 °F 66.2 °F 29.8 in ESE 5 mph 6.8 mph 71% 0.02 in 206.00 W/m2 unknown
19:24 77 °F 66.2 °F 29.8 in ESE 5 mph 6.8 mph 72% 0.02 in 207.00 W/m2 unknown
19:29 77 °F 66.2 °F 29.8 in ESE 5 mph 6.8 mph 72% 0.02 in 193.00 W/m2 unknown
19:34 77 °F 66.2 °F 29.8 in SE 3.7 mph 6.8 mph 71% 0.02 in 169.00 W/m2 unknown
19:39 77 °F 66.2 °F 29.8 in ESE 3.7 mph 6.2 mph 70% 0.02 in 149.00 W/m2 unknown
19:44 77 °F 66.2 °F 29.8 in ESE 3.7 mph 6.2 mph 70% 0.02 in 132.00 W/m2 unknown
19:49 75.2 °F 66.2 °F 29.8 in ESE 3.1 mph 6.2 mph 71% 0.02 in 116.00 W/m2 unknown
19:54 75.2 °F 66.2 °F 29.8 in SE 2.5 mph 3.7 mph 72% 0.02 in 93.00 W/m2 unknown
19:59 75.2 °F 66.2 °F 29.8 in SE 2.5 mph 5 mph 71% 0.02 in 88.00 W/m2 unknown
20:04 75.2 °F 66.2 °F 29.8 in SSE 4.3 mph 8.1 mph 72% 0.02 in 77.00 W/m2 unknown
20:09 75.2 °F 66.2 °F 29.8 in SE 3.7 mph 8.1 mph 73% 0.02 in 56.00 W/m2 unknown
20:14 75.2 °F 66.2 °F 29.8 in SSE 3.1 mph 5 mph 76% 0.02 in 26.00 W/m2 unknown
20:19 75.2 °F 66.2 °F 29.8 in SSE 3.1 mph 5 mph 76% 0.02 in 25.00 W/m2 unknown
20:24 73.4 °F 66.2 °F 29.8 in SSE 1.9 mph 3.7 mph 77% 0.02 in 21.00 W/m2 unknown
20:29 73.4 °F 66.2 °F 29.8 in SSE 2.5 mph 3.7 mph 77% 0.02 in 19.00 W/m2 unknown
20:34 73.4 °F 66.2 °F 29.8 in SSE 1.9 mph 3.7 mph 78% 0.01 in 16.00 W/m2 unknown
20:39 73.4 °F 66.2 °F 29.8 in South 1.9 mph 3.7 mph 79% 0.01 in 14.00 W/m2 unknown
20:44 73.4 °F 66.2 °F 29.8 in South 1.9 mph 5 mph 79% 0.01 in 12.00 W/m2 unknown
20:49 73.4 °F 66.2 °F 29.8 in South 2.5 mph 5 mph 78% 0.01 in 11.00 W/m2 unknown
20:54 73.4 °F 64.4 °F 29.8 in SSW 1.9 mph 5 mph 78% 0.01 in 7.00 W/m2 unknown
20:59 71.6 °F 64.4 °F 29.8 in SSW 1.9 mph 3.7 mph 79% 0.01 in 5.00 W/m2 unknown
21:04 71.6 °F 64.4 °F 29.8 in SSW 1.9 mph 3.7 mph 79% 0.01 in 0.00 W/m2 unknown
21:09 71.6 °F 64.4 °F 29.8 in SSW 1.2 mph 3.1 mph 79% 0.01 in 0.00 W/m2 unknown
21:14 71.6 °F 66.2 °F 29.8 in Calm   1.2 mph 81% 0.01 in 0.00 W/m2 unknown
21:19 71.6 °F 66.2 °F 29.8 in Calm   1.9 mph 82% 0.01 in 0.00 W/m2 unknown
21:24 71.6 °F 64.4 °F 29.8 in NW 1.9 mph 3.7 mph 81% 0.01 in 0.00 W/m2 unknown
21:29 71.6 °F 66.2 °F 29.8 in NNW 1.9 mph 3.7 mph 82% 0.01 in 0.00 W/m2 unknown
21:34 71.6 °F 66.2 °F 29.8 in NW 1.9 mph 3.7 mph 82% 0.01 in 0.00 W/m2 unknown
21:39 71.6 °F 66.2 °F 29.8 in West 1.9 mph 3.7 mph 84% 0.01 in 0.00 W/m2 unknown
21:44 69.8 °F 64.4 °F 29.8 in WSW 2.5 mph 3.7 mph 85% 0.01 in 0.00 W/m2 unknown
21:49 69.8 °F 64.4 °F 29.8 in WSW 2.5 mph 3.7 mph 84% 0.01 in 0.00 W/m2 unknown
21:54 69.8 °F 64.4 °F 29.8 in WSW 2.5 mph 3.7 mph 84% 0.01 in 0.00 W/m2 unknown
21:59 69.8 °F 64.4 °F 29.8 in WSW 1.9 mph 3.7 mph 84% 0.01 in 0.00 W/m2 unknown
22:04 69.8 °F 64.4 °F 29.8 in SW 2.5 mph 3.7 mph 84% 0.01 in 0.00 W/m2 unknown
22:09 69.8 °F 64.4 °F 29.8 in SW 2.5 mph 3.7 mph 84% 0.01 in 0.00 W/m2 unknown
22:14 69.8 °F 64.4 °F 29.8 in SW 3.1 mph 3.7 mph 83% 0.01 in 0.00 W/m2 unknown
22:19 69.8 °F 64.4 °F 29.8 in South 2.5 mph 5 mph 83% 0 in 0.00 W/m2 unknown
22:24 69.8 °F 64.4 °F 29.8 in SSE 3.7 mph 6.2 mph 82% 0 in 0.00 W/m2 unknown
22:29 69.8 °F 64.4 °F 29.8 in SE 3.7 mph 6.2 mph 81% 0 in 0.00 W/m2 unknown
22:34 69.8 °F 64.4 °F 29.8 in South 3.1 mph 5 mph 81% 0 in 0.00 W/m2 unknown
22:39 69.8 °F 64.4 °F 29.8 in WNW 3.1 mph 5 mph 81% 0 in 0.00 W/m2 unknown
22:44 69.8 °F 64.4 °F 29.8 in WNW 3.1 mph 3.7 mph 83% 0 in 0.00 W/m2 unknown
22:49 69.8 °F 64.4 °F 29.8 in NW 2.5 mph 3.7 mph 83% 0 in 0.00 W/m2 unknown
22:54 68 °F 64.4 °F 29.8 in NW 2.5 mph 3.7 mph 84% 0 in 0.00 W/m2 unknown
22:59 68 °F 64.4 °F 29.8 in NW 3.1 mph 5 mph 84% 0 in 0.00 W/m2 unknown
23:04 68 °F 64.4 °F 29.8 in NW 3.1 mph 6.2 mph 84% 0 in 0.00 W/m2 unknown
23:09 68 °F 62.6 °F 29.8 in NW 3.1 mph 6.2 mph 85% 0 in 0.00 W/m2 unknown
23:14 68 °F 62.6 °F 29.8 in WNW 3.1 mph 3.7 mph 86% 0 in 0.00 W/m2 unknown
23:19 68 °F 62.6 °F 29.8 in WNW 2.5 mph 3.7 mph 86% 0 in 0.00 W/m2 unknown
23:24 68 °F 62.6 °F 29.8 in WNW 1.9 mph 3.7 mph 86% 0 in 0.00 W/m2 unknown
23:29 68 °F 62.6 °F 29.8 in WNW 1.9 mph 3.7 mph 86% 0 in 0.00 W/m2 unknown
23:34 68 °F 62.6 °F 29.8 in WNW 3.1 mph 5 mph 85% 0 in 0.00 W/m2 unknown
23:39 68 °F 62.6 °F 29.8 in WNW 3.1 mph 5 mph 85% 0 in 0.00 W/m2 unknown
23:44 68 °F 62.6 °F 29.8 in WNW 3.1 mph 5 mph 84% 0 in 0.00 W/m2 unknown
23:49 68 °F 62.6 °F 29.8 in WNW 3.1 mph 3.7 mph 83% 0 in 0.00 W/m2 unknown
23:54 66.2 °F 60.8 °F 29.8 in WNW 3.1 mph 3.7 mph 83% 0 in 0.00 W/m2 unknown
23:59 66.2 °F 60.8 °F 29.8 in WNW 1.9 mph 3.7 mph 83% 0 in 0.00 W/m2 unknown
Stazione Meteorologica MeteoMincio Rivalta s/M (MN)
Con i complimenti di Weather Underground - 4 mb



METEO PILLOLE
Maggior quantità di pioggia caduta in 6 ore in Italia
Cairo Montenotte (Savona)
Il 4 ottobre 2021 caddero 496mm di pioggia.
Share

Non seguire questo link o sarai bannato dal sito!